Theta_e
296 296 297 296 296 296 296 296 296 295 295 295 295 295 295 295 295 294 295 294 294 294 294 293 293 293 292 291 290 289 289 289 289 289 289 289 289 290 290 291 291 291
296 296 296 296 296 296 296 296 296 296 296 296 295 295 295 294 293 293 294 293 293 293 293 293 292 292 291 291 290 289 289 288 289 289 288 288 289 289 290 290 290 290
296 296 296 296 296 296 296 295 295 295 296 295 295 295 294 294 293 293 293 293 293 293 292 292 292 291 291 290 289 289 289 288 288 288 288 288 289 289 289 289 290 289
295 295 296 296 296 295 295 295 295 295 295 295 295 295 295 294 294 293 293 292 292 292 292 291 291 291 290 290 289 289 288 288 288 288 288 288 288 288 288 289 289 289
294 295 295 295 295 295 295 295 295 295 295 295 294 294 294 294 294 293 293 293 292 292 291 291 291 290 290 290 289 288 288 287 287 288 287 287 287 287 288 288 288 288
294 294 294 294 294 294 295 295 295 295 295 295 294 294 294 294 293 293 293 293 292 292 291 291 290 290 289 289 288 288 287 287 287 287 287 287 287 287 287 287 287 287
293 294 294 294 294 294 294 294 294 294 294 294 294 294 294 293 293 293 293 292 292 292 291 291 290 290 289 289 288 287 287 287 286 286 286 286 286 287 287 287 287 286
292 292 293 293 294 294 294 294 294 294 294 294 293 293 293 293 293 293 292 292 292 291 291 291 290 290 289 288 288 287 286 286 286 286 286 286 286 286 286 286 286 286
292 292 291 292 292 293 293 294 294 294 293 293 293 293 293 293 293 293 292 292 292 291 290 290 290 289 289 288 288 287 286 286 285 285 286 285 285 286 286 286 285 285
292 291 291 291 291 291 292 292 293 293 293 293 292 292 292 292 292 292 292 291 291 291 290 289 289 289 289 288 288 287 286 286 285 285 285 285 286 286 286 286 285 285
292 291 291 291 291 291 291 291 291 292 292 292 292 292 291 291 291 291 291 291 291 290 290 290 289 289 288 288 288 287 286 285 285 285 285 285 285 286 286 286 286 285
291 291 291 291 291 291 291 291 290 291 291 291 291 291 291 291 291 290 290 290 290 290 290 290 290 289 288 288 287 287 287 286 285 285 285 285 285 285 285 286 286 286
290 290 290 290 290 291 291 291 290 290 290 291 291 291 291 290 290 290 290 290 290 290 290 289 289 289 288 288 287 286 286 286 285 284 284 284 284 284 285 285 286 286
289 289 289 290 291 291 291 291 291 290 290 290 290 290 290 290 290 289 289 289 289 289 289 289 288 288 288 287 287 286 286 285 285 284 284 284 284 284 284 284 285 285
288 288 288 289 290 290 290 290 290 290 290 290 290 290 290 290 290 289 289 289 289 289 288 288 288 288 288 287 287 286 286 285 285 284 284 284 284 283 283 283 284 284
287 287 287 287 289 290 290 290 290 290 290 290 290 290 290 290 289 289 289 288 288 288 288 288 288 288 288 287 287 287 286 286 285 284 284 283 283 283 283 283 283 283
287 286 286 286 287 288 289 289 289 289 290 290 290 289 289 289 289 289 289 288 288 288 288 287 287 287 287 287 287 287 286 286 285 285 284 283 283 283 282 282 282 282
286 286 285 285 286 287 288 289 289 289 289 289 289 289 289 289 289 289 288 288 288 288 287 287 287 287 287 287 287 286 286 286 285 285 284 283 283 282 282 282 282 282
286 285 284 284 285 286 287 289 289 289 289 289 289 289 289 288 288 288 288 288 288 287 287 287 287 287 287 287 286 286 286 286 285 285 284 283 283 282 282 281 281 281
285 284 283 283 284 285 286 287 288 289 289 288 288 288 288 288 288 288 288 287 287 287 287 287 287 287 287 286 286 286 286 286 285 285 284 284 283 283 282 282 281 281
283 283 282 283 284 284 285 286 287 288 288 288 287 287 287 287 287 287 287 287 287 287 287 287 287 287 286 286 286 286 286 286 286 285 284 284 283 282 282 282 282 281
281 281 281 282 283 284 284 284 285 286 287 287 286 286 286 286 286 287 286 286 287 286 286 286 286 286 286 286 286 286 286 286 286 285 284 283 283 282 282 281 281 281
279 279 279 281 283 284 283 283 284 284 286 286 286 285 285 286 286 286 286 286 286 286 286 286 286 286 286 286 286 286 286 287 286 285 284 283 282 282 281 281 281 281
277 277 279 281 283 283 283 282 282 283 284 285 285 285 285 285 285 285 285 285 285 285 285 285 285 285 285 285 285 286 287 287 286 285 284 283 282 281 281 280 280 280
276 276 278 281 282 282 281 281 281 281 282 283 284 284 284 285 285 284 284 285 285 285 285 285 285 285 285 285 285 286 287 287 287 285 283 282 281 280 280 280 279 279
274 275 277 279 280 280 279 280 280 280 281 281 283 284 284 284 284 284 283 284 284 284 284 284 284 284 284 284 285 286 287 287 286 285 283 282 281 279 279 278 279 279
Wind_Speed
27 27 28 29 29 29 29 30 31 32 35 38 41 43 45 46 47 48 49 49 49 49 48 48 48 48 47 47 47 47 46 46 46 45 43 41 39 37 35 34 32 30
27 27 27 27 28 28 28 29 31 32 35 37 39 40 41 42 43 45 47 48 48 48 48 47 46 46 46 47 47 47 47 47 46 45 44 43 41 40 37 36 34 32
27 28 29 29 29 28 28 29 30 32 34 35 37 38 38 38 40 42 44 46 47 47 47 47 47 46 46 46 47 47 48 48 48 47 46 45 44 42 40 38 36 34
25 28 29 30 30 29 28 28 30 31 33 34 36 37 37 38 39 40 42 44 45 46 46 47 47 47 47 47 47 48 48 49 49 48 47 46 45 44 42 40 38 36
25 27 28 30 30 30 29 30 31 32 34 35 35 36 37 38 38 40 41 43 45 46 46 46 47 47 47 48 48 48 48 48 48 48 48 48 46 45 44 42 40 38
25 27 28 30 30 30 31 32 33 33 35 36 36 37 37 38 39 40 41 43 44 46 46 46 47 47 47 47 48 49 49 49 48 48 48 48 47 45 44 43 42 40
24 26 28 30 31 31 32 33 33 33 35 36 37 38 38 38 39 40 41 42 44 45 47 47 48 48 48 48 48 49 49 48 48 49 48 48 48 46 45 44 44 42
25 25 26 28 30 31 32 33 33 34 34 35 37 38 38 39 40 40 40 41 43 45 47 48 48 49 49 49 50 50 49 48 48 49 49 48 48 48 48 46 45 44
29 27 25 26 28 30 32 33 34 35 35 35 36 37 38 39 40 41 41 42 43 44 45 46 48 49 49 50 51 52 51 50 49 51 51 51 50 51 50 48 46 45
34 32 29 27 27 28 30 31 33 34 35 36 36 36 37 38 39 40 41 42 43 44 44 45 46 48 49 51 52 51 51 51 51 52 52 52 54 54 52 51 50 48
39 37 34 31 29 29 28 29 30 32 33 35 36 36 37 38 39 39 40 42 44 45 45 46 47 48 49 51 52 52 51 51 51 52 53 53 53 55 55 55 54 53
40 40 38 36 33 31 29 28 28 28 30 32 34 35 37 38 39 40 41 43 44 44 45 47 48 48 48 50 51 52 52 51 50 51 54 53 53 54 56 57 57 55
38 39 39 38 36 34 31 29 28 27 27 29 31 33 36 37 38 39 41 42 43 44 44 45 45 47 49 49 49 50 50 50 50 51 53 53 52 54 55 57 58 57
36 37 38 39 39 36 33 30 29 28 28 28 29 31 34 35 37 38 39 41 42 43 43 43 43 46 48 49 50 49 48 47 47 49 53 53 52 52 53 54 56 56
35 35 37 39 39 38 36 33 30 29 28 28 28 30 32 34 35 36 37 39 40 41 41 42 43 46 48 49 49 49 48 48 47 47 50 51 51 50 51 52 53 54
33 35 37 38 38 37 37 35 33 30 28 27 28 29 31 33 33 35 37 38 39 39 40 41 43 46 47 48 50 50 49 48 47 46 46 45 46 48 49 50 51 52
32 34 36 38 38 37 37 37 35 32 28 27 26 27 30 31 33 35 37 37 38 38 40 42 44 46 46 47 50 51 50 48 47 47 46 44 43 44 47 49 50 50
32 33 35 36 38 38 38 38 36 34 31 29 27 26 28 29 32 34 36 36 37 38 40 42 44 45 46 46 49 51 51 49 46 44 45 45 44 42 42 44 46 47
32 33 34 35 36 37 38 38 38 37 35 32 30 28 27 28 30 32 34 35 36 38 40 42 43 44 45 46 48 49 51 49 46 44 43 45 46 44 42 41 42 44
31 32 34 35 35 36 37 37 37 37 35 34 32 30 28 28 29 31 33 34 35 37 39 40 42 44 44 45 47 48 50 50 48 45 44 44 46 47 46 44 44 45
30 32 34 35 35 34 34 35 36 36 36 34 32 30 29 29 29 30 31 33 35 36 37 39 41 41 41 43 45 47 48 48 47 46 44 43 44 46 48 48 48 48
31 33 35 35 34 33 33 33 34 35 36 35 32 30 30 29 29 30 30 32 33 35 36 38 39 39 40 42 44 45 45 45 45 46 44 42 42 43 45 47 48 50
32 34 35 35 33 33 33 33 33 34 36 35 32 30 30 29 29 30 30 31 32 33 35 37 37 37 38 41 42 43 42 42 42 42 42 40 40 41 44 45 47 49
34 34 34 33 32 32 33 34 34 34 35 34 32 30 30 30 29 30 30 30 30 32 34 36 37 36 36 38 40 41 41 41 40 39 39 38 37 38 41 43 45 46
35 34 32 31 32 33 33 35 35 35 36 35 33 31 31 30 29 29 30 30 30 32 33 34 36 35 34 35 36 37 40 41 39 37 36 36 34 34 36 40 42 44
36 34 32 32 32 34 34 34 35 35 36 36 35 33 32 30 29 29 30 31 30 30 31 32 33 33 33 33 33 35 39 40 38 37 35 33 31 31 33 37 41 43
Wind_Direction
240 237 235 234 232 230 228 226 222 219 218 217 217 218 218 218 217 216 216 217 216 217 217 216 216 216 216 216 216 215 215 215 214 213 212 211 210 210 209 208 208 208
246 244 242 241 240 238 235 233 230 226 226 225 224 223 221 219 217 216 216 215 215 217 217 217 217 216 216 215 215 215 215 215 215 213 212 211 211 210 210 209 209 208
252 249 246 244 244 243 241 239 237 234 232 231 229 227 225 222 220 219 217 216 216 216 216 217 217 216 216 216 215 215 215 215 214 213 212 211 211 210 210 209 209 208
261 257 252 249 246 245 244 242 240 238 236 235 233 231 229 227 224 222 220 218 217 217 217 217 217 217 217 216 216 216 215 215 215 213 211 211 211 210 209 208 208 207
274 267 262 257 252 249 246 243 242 240 238 237 236 235 232 230 227 225 223 220 218 218 218 217 217 217 216 216 215 215 215 214 214 212 211 210 209 209 209 208 207 206
288 279 272 266 260 254 250 247 244 242 240 238 237 236 234 232 230 228 225 222 220 218 218 217 217 216 216 215 215 215 214 213 212 211 211 210 209 208 208 208 207 206
305 293 282 274 268 262 257 253 250 246 243 241 239 237 235 233 232 230 228 225 222 220 219 218 217 216 215 215 214 214 214 213 212 210 209 209 208 207 207 207 207 206
325 309 294 282 274 268 263 260 257 253 249 245 241 238 236 234 232 230 229 227 225 223 220 219 218 217 216 215 214 214 212 211 211 209 207 207 207 206 206 206 205 205
342 329 313 296 282 273 267 263 260 257 254 250 246 242 239 236 233 230 229 227 225 224 222 220 219 217 216 216 215 214 212 211 210 209 207 205 205 206 205 203 203 203
352 345 334 316 298 285 275 269 263 259 254 251 248 245 242 239 236 232 229 227 225 223 222 220 220 218 217 216 216 215 214 213 212 210 208 207 207 206 205 203 202 202
354 352 346 335 320 305 292 281 271 262 256 251 247 245 242 240 238 233 229 227 225 223 222 221 221 220 218 217 217 216 215 215 214 212 210 209 209 208 207 206 204 203
353 352 349 345 336 324 311 298 285 272 262 254 249 246 243 240 237 234 231 229 227 225 224 223 222 221 220 220 219 217 215 215 215 215 213 211 210 209 209 208 207 205
350 349 348 347 344 338 328 315 302 288 275 264 256 250 245 240 237 235 233 231 230 228 226 225 222 221 221 221 220 218 216 215 215 214 214 213 212 211 210 210 208 206
346 346 346 346 346 345 341 331 319 306 292 280 268 256 249 245 241 238 236 234 232 231 229 227 224 223 222 221 220 218 217 217 216 215 214 213 213 212 211 210 209 207
342 343 344 345 346 345 344 340 333 322 309 295 281 269 260 253 247 243 239 237 235 232 230 228 226 225 224 222 219 217 216 217 218 218 217 215 213 212 212 211 209 207
339 340 341 342 343 343 341 339 336 331 321 307 293 281 270 262 254 248 243 239 237 234 231 229 228 228 227 224 222 219 217 216 216 218 219 218 216 213 211 210 209 209
336 338 339 339 339 339 338 336 334 332 328 318 305 291 279 268 258 252 247 242 239 236 233 231 230 230 229 227 225 222 219 217 216 217 217 219 220 216 212 210 208 208
334 335 336 336 336 336 335 335 333 332 330 326 317 304 290 275 263 255 250 245 241 238 236 234 234 233 230 228 226 224 221 219 218 217 216 216 218 219 216 212 208 206
331 332 332 331 331 331 332 333 333 332 331 328 322 313 300 283 270 261 254 248 243 240 239 238 237 235 232 229 227 224 222 221 219 219 218 217 216 217 217 214 209 205
329 329 328 326 327 328 329 329 330 330 329 327 322 315 303 289 277 267 259 252 247 243 242 241 239 237 233 230 228 224 222 221 220 220 220 219 217 215 215 213 211 207
327 326 324 323 323 324 325 326 326 325 325 324 320 313 304 292 282 272 264 257 251 247 245 244 242 239 235 231 228 225 222 221 220 221 221 221 219 217 215 214 212 209
325 325 323 321 321 322 322 322 322 321 321 320 316 311 303 293 283 274 266 261 256 250 247 246 245 241 236 233 229 225 222 219 219 221 221 221 220 217 216 214 213 210
323 323 321 319 319 319 319 318 317 316 316 315 312 307 302 293 285 278 270 264 259 253 249 248 247 244 239 235 230 224 219 218 218 219 221 221 220 217 215 214 213 211
320 320 318 315 314 315 315 314 313 312 311 311 306 301 298 294 288 282 274 267 260 256 252 250 249 246 241 236 230 222 218 218 218 218 219 220 219 217 215 212 211 210
316 317 314 310 309 310 310 310 309 308 308 307 303 298 295 293 289 283 276 270 263 258 254 251 250 248 243 237 229 220 218 219 218 217 217 217 216 213 211 209 208 207
313 313 310 306 305 306 307 306 305 305 305 304 302 297 293 290 286 281 275 271 267 261 256 252 250 248 244 238 228 219 218 219 218 217 215 213 211 207 203 203 203 203